Location: Unspecified
(0.0000°N, 0.0000°E)
Time: 01:08:39
(UTC+00:00)

STRELA 3 - Pass Details

Date: 17 May 2026
Orbit: 1496 x 1510 km, 82.5° (Epoch: 10 June)

Event Time Altitude Azimuth Distance (km) Brightness Sun altitude
Rises 01:22:24 0° 26° (NNE) 4,615 10.7 -61.4°
Reaches altitude 10° 01:26:15 10° 42° (NE) 3,637 10.1 -60.7°
Enters shadow 01:27:32 13° 49° (NE) 3,367 9.8 -60.5°
